Location: Newark
(45.2500°N, 7.5833°E)
Time: 01:30:18
(UTC+00:00)

N. Korean satellite - Pass Details

Date: 23 December 2019
Orbit: 454 x 507 km, 97.2° (Epoch: 23 January)

Event Time Altitude Azimuth Distance (km) Brightness Sun altitude
Rises 05:43:00 0° 7° (N) 2,501 10.1 -14.0°
Reaches altitude 10° 05:45:05 10° 2° (N) 1,615 9.0 -13.6°
Maximum altitude 05:48:27 51° 286° (WNW) 585 6.5 -13.1°
Drops below altitude 10° 05:51:45 10° 210° (SSW) 1,589 9.1 -12.5°
Sets 05:53:48 0° 205° (SSW) 2,456 10.1 -12.2°
